STARLINK-11522, 63141

Orbit data source: Space-Track

STARLINK-11522, 63141 is a payload satellite owned by SpaceX/Seattle (US) in LEO that was launched on Mon, 03 Mar 2025 UTC via an FALCON 9 launch vehicle from the Air Force Eastern Test Range (AFETR). Payload-class satellites include a variety of spacecraft equipped with specific instruments for various scientific and technological missions. These include communications satellites like Starlink; space stations such as the ISS; scientific satellites like the Hubble; Earth observation satellites from companies like Planet Labs, Umbra, and HawkEye 360; GPS; miniature CubeSats for education and research; and military/defense satellites.

Loading next visibility...
Identifier
63141, 2025-043K
Orbit
LEO
Country
Flag of USUS
Related business
Manufacturer
SpaceX/Seattle
Mission
Operational Commercial Communications
Bus & Motor
STARLINK V2MD, Unknown motor
Mass
960 kg wet, ~910 kg dry
Launch date (UTC)
2025-03-03 (10 months ago)
Launch vehicle
FALCON 9
Launch site
Air Force Eastern Test Range (AFETR)
Object type
Payload
Rocket body
Debris
Shape & HBR
Box + 2 Pan, 18.1 m
Radar Cross Section
36.964 m², Large (>1 m²)

Expand to show TLE details & history
Last TLE update: 10 hours ago

TLE from 10 hours ago
0 STARLINK-11522
1 63141U 25043K   25352.10862888  .00172814  00000-0  13222-2 0  9992
2 63141  42.9996  22.2703 0001197 244.8114 115.2629 15.70843991 46467
Epoch: 2025-12-18T02:36Z
TLE epoch observation values (Epoch: 2025-12-18T02:36:25.535Z)
Latitude
-0.00005°
Longitude
-103.80501°
Altitude
356.599 km
Speed
7.697 km/s
True Right ascension
01h 29m 04s
True Declination
0° 00' 00"
Sunlit
Object was in full shadow at epoch
Visualization orbit readout
Latitude
Unknown
Longitude
Unknown
Altitude
Unknown
Speed
Unknown
Apparent Right ascension
Unknown
Apparent Declination
Unknown
Sunlit
N/A
Visualization observer readout
Local Sidereal Time
11:54:23
Azimuth
Unknown
Elevation
Unknown
Doppler factor
Unknown
Orbital elements
Apogee altitude
359.272 km
Perigee altitude
357.659 km
Semi-major axis
6,736.602 km
Eccentricity
0.00012
Inclination
42.9996°
RAAN
22.2703°
Arg. of periapsis
244.8114°
True anomaly
115.2753°
Mean anomaly
115.2629°
Eccentric anomaly
115.2691°
Mean motion
3.92538 °/min
Orbital period
91.71 mins
BSTAR
0.0013222
Loading maneuver chart data...
Computing Atmospheric mass density...
Loading historical data...
Loading historical data...
Loading historical data...
Loading historical data...
Loading historical data...
Loading historical data...
Loading historical data...

Documentation

Showing up to 5 results
|